Weather History for Swansboro, NC

Change the Weather History Date:

Friday, December 13, 2013

  Actual Average (KNKT) Record (KNKT)
Temperature  
Mean Temperature 38 °F -  
Max Temperature 48 °F 57 °F 73 °F (2007)
Min Temperature 27 °F 38 °F 26 °F (2010)
Degree Days  
Heating Degree Days 28    
Moisture  
Dew Point 25 °F    
Average Humidity 66    
Maximum Humidity 89    
Minimum Humidity 26    
Precipitation  
Precipitation 0.00 in - - ()
Sea Level Pressure  
Sea Level Pressure 30.38 in    
Wind  
Wind Speed 2 mph (West)    
Max Wind Speed 9 mph    
Max Gust Speed -    
Visibility 10 miles    
Events      
Averages and records for this station are not official NWS values.
T = Trace of Precipitation, MM = Missing Value Source: NWS Daily Summary

Daily Weather History Graph

Daily Weather History Graph

Search for Another Location

Airport:

Trip Planner

Search our weather history database for the weather conditions in past years. The results will help you decide how hot, cold, wet, or windy it might be!

Date:

Astronomy

Dec. 13, 2013 Rise Set
Actual Time 7:06 AM EST 4:58 PM EST
Civil Twilight 6:38 AM EST 5:26 PM EST
Nautical Twilight 6:07 AM EST 5:57 PM EST
Astronomical Twilight 5:36 AM EST 6:28 PM EST
Moon 2:34 PM EST (12/13) 3:33 AM EST (12/13)
Length of Visible Light 10h 47m
Length of Day
9h 51m
Waxing Gibbous, 88% of the Moon is Illuminated
Dec 13
Waxing Gibbous
Dec 17
Full
Dec 25
Last Quarter
Jan 1
New
Jan 7
First Quarter

Hourly Weather History & Observations

Time (EST) Temp. Windchill Dew Point Humidity Pressure Visibility Wind Dir Wind Speed Gust Speed Precip Events Conditions
12:57 AM 28.9 °F - 25.0 °F 85% 30.37 in 10.0 mi Calm Calm - N/A   Clear
1:57 AM 28.0 °F - 24.1 °F 85% 30.37 in 8.0 mi Calm Calm - N/A   Clear
2:57 AM 28.0 °F - 24.1 °F 85% 30.38 in 9.0 mi Calm Calm - N/A   Clear
3:57 AM 27.0 °F - 24.1 °F 89% 30.37 in 9.0 mi Calm Calm - N/A   Clear
4:57 AM 28.9 °F 21.9 °F 25.0 °F 85% 30.38 in 9.0 mi NW 6.9 mph - N/A   Clear
5:57 AM 28.9 °F 22.8 °F 26.1 °F 89% 30.40 in 10.0 mi NW 5.8 mph - N/A   Clear
6:57 AM 28.0 °F 22.8 °F 25.0 °F 88% 30.42 in 10.0 mi NW 4.6 mph - N/A   Clear
7:57 AM 30.9 °F 25.2 °F 27.0 °F 85% 30.43 in 10.0 mi NW 5.8 mph - N/A   Clear
8:57 AM 36.0 °F 33.3 °F 28.0 °F 73% 30.45 in 10.0 mi NW 3.5 mph - N/A   Clear
9:57 AM 43.0 °F 39.5 °F 21.0 °F 42% 30.46 in 10.0 mi West 5.8 mph - N/A   Clear
10:57 AM 45.0 °F 41.8 °F 17.1 °F 33% 30.44 in 10.0 mi West 5.8 mph - N/A   Clear
11:57 AM 48.9 °F - 15.1 °F 26% 30.40 in 10.0 mi Variable 4.6 mph - N/A   Clear
12:57 PM 48.9 °F - 17.1 °F 28% 30.37 in 10.0 mi SW 5.8 mph - N/A   Clear
1:57 PM 48.9 °F - 21.0 °F 33% 30.35 in 10.0 mi SSW 9.2 mph - N/A   Clear
2:57 PM 48.9 °F - 21.0 °F 33% 30.34 in 10.0 mi WSW 6.9 mph - N/A   Clear
3:57 PM 48.0 °F - 24.1 °F 39% 30.35 in 10.0 mi SW 8.1 mph - N/A   Clear
4:57 PM 45.0 °F - 28.0 °F 52% 30.35 in 10.0 mi Calm Calm - N/A   Clear
5:57 PM 39.0 °F - 28.9 °F 67% 30.35 in 10.0 mi Calm Calm - N/A   Clear
6:57 PM 37.0 °F - 28.9 °F 73% 30.35 in 10.0 mi Calm Calm - N/A   Clear
7:57 PM 35.1 °F - 28.0 °F 76% 30.35 in 10.0 mi Calm Calm - N/A   Clear
8:57 PM 34.0 °F - 28.9 °F 82% 30.35 in 10.0 mi Calm Calm - N/A   Clear
9:57 PM 35.1 °F - 28.9 °F 78% 30.35 in 10.0 mi Calm Calm - N/A   Clear
10:57 PM 35.1 °F - 30.0 °F 82% 30.37 in 10.0 mi Calm Calm - N/A   Clear
11:57 PM 34.0 °F - 28.9 °F 82% 30.35 in 10.0 mi Calm Calm - N/A   Clear